Location: Cormont
(50.5693°N, 1.7416°E)
Time: 11:14:58
(UTC+00:00)

Cosmos 2297 Rocket - Pass Details

Date: 21 October 2019
Orbit: 840 x 842 km, 71.0° (Epoch: 20 November)

Event Time Altitude Azimuth Distance (km) Brightness Sun altitude
Rises 19:41:43 0° 329° (NNW) 3,408 6.0 -27.8°
Reaches altitude 10° 19:45:34 10° 355° (N) 2,471 4.9 -28.4°
Enters shadow 19:48:00 14° 21° (NNE) 2,212 4.3 -28.7°
